| time (UTC) | temp C | wind direction | speed KPH | gust KPH | rain 1hr cm | rain 24hr cm | rain mn cm | humidity % | barometer mb |
| 20260506160024 | 11 | 254 | 6.4 | 19.3 | 0.13 | 0.18 | 0.13 | 88 | 1033.9 |
| 20260506155023 | 11 | 275 | 9.7 | 17.7 | 0.13 | 0.18 | 0.13 | 88 | 1033.8 |
| 20260506154023 | 11 | 213 | 8.0 | 17.7 | 0.13 | 0.18 | 0.13 | 88 | 1033.8 |
| 20260506153024 | 12 | 302 | 6.4 | 14.5 | 0.13 | 0.18 | 0.13 | 81 | 1033.6 |
| 20260506152022 | 13 | 333 | 14.5 | 37.0 | 0.00 | 0.05 | 0.00 | 68 | 1033.3 |
| 20260506151022 | 17 | 293 | 4.8 | 11.3 | 0.00 | 0.05 | 0.00 | 62 | 1032.3 |
| 20260506150023 | 18 | 303 | 3.2 | 6.4 | 0.00 | 0.05 | 0.00 | 55 | 1031.7 |
| 20260506145023 | 17 | 328 | 4.8 | 8.0 | 0.00 | 0.05 | 0.00 | 60 | 1031.5 |
| 20260506144023 | 17 | 356 | 4.8 | 8.0 | 0.00 | 0.05 | 0.00 | 60 | 1031.5 |
| 20260506143023 | 16 | 351 | 6.4 | 12.9 | 0.00 | 0.05 | 0.00 | 69 | 1031.5 |
| 20260506142023 | 16 | 347 | 4.8 | 12.9 | 0.00 | 0.05 | 0.00 | 71 | 1031.6 |
| 20260506141023 | 15 | 290 | 4.8 | 12.9 | 0.00 | 0.05 | 0.00 | 70 | 1031.5 |
| 20260506140023 | 16 | 339 | 3.2 | 9.7 | 0.00 | 0.05 | 0.00 | 70 | 1032.3 |
| 20260506135023 | 16 | 338 | 4.8 | 8.0 | 0.00 | 0.05 | 0.00 | 66 | 1032.1 |
| 20260506134023 | 17 | 340 | 4.8 | 8.0 | 0.00 | 0.05 | 0.00 | 64 | 1032.1 |
| 20260506133023 | 17 | 302 | 3.2 | 9.7 | 0.00 | 0.05 | 0.00 | 60 | 1031.9 |
| 20260506132022 | 17 | 334 | 3.2 | 6.4 | 0.00 | 0.05 | 0.00 | 53 | 1032.3 |
| 20260506131023 | 17 | 199 | 1.6 | 4.8 | 0.00 | 0.05 | 0.00 | 52 | 1032.0 |
| 20260506130023 | 18 | 230 | 1.6 | 4.8 | 0.00 | 0.05 | 0.00 | 52 | 1031.8 |
| 20260506125023 | 18 | 282 | 3.2 | 8.0 | 0.00 | 0.05 | 0.00 | 51 | 1031.7 |
| 20260506124022 | 18 | 187 | 3.2 | 6.4 | 0.00 | 0.05 | 0.00 | 51 | 1031.7 |
| 20260506123023 | 17 | 220 | 4.8 | 8.0 | 0.00 | 0.05 | 0.00 | 51 | 1031.5 |
| 20260506122023 | 17 | 279 | 6.4 | 11.3 | 0.00 | 0.10 | 0.00 | 51 | 1031.6 |
| 20260506121022 | 17 | 294 | 4.8 | 9.7 | 0.00 | 0.10 | 0.00 | 50 | 1031.4 |
| 20260506120023 | 17 | 288 | 4.8 | 9.7 | 0.00 | 0.10 | 0.00 | 50 | 1031.9 |
| 20260506115023 | 18 | 282 | 4.8 | 12.9 | 0.00 | 0.10 | 0.00 | 47 | 1031.8 |
| 20260506114023 | 17 | 274 | 6.4 | 9.7 | 0.00 | 0.10 | 0.00 | 47 | 1031.8 |
| 20260506113023 | 18 | 213 | 3.2 | 9.7 | 0.00 | 0.10 | 0.00 | 51 | 1031.9 |
| 20260506112023 | 18 | 244 | 4.8 | 9.7 | 0.00 | 0.10 | 0.00 | 52 | 1032.0 |
| 20260506111022 | 17 | 236 | 4.8 | 8.0 | 0.00 | 0.10 | 0.00 | 51 | 1032.1 |
| 20260506110023 | 17 | 248 | 4.8 | 9.7 | 0.00 | 0.10 | 0.00 | 54 | 1032.2 |
| 20260506105022 | 17 | 249 | 4.8 | 12.9 | 0.00 | 0.10 | 0.00 | 55 | 1032.0 |
| 20260506104023 | 17 | 237 | 3.2 | 8.0 | 0.00 | 0.10 | 0.00 | 61 | 1031.9 |
| 20260506103022 | 16 | 257 | 3.2 | 6.4 | 0.00 | 0.10 | 0.00 | 61 | 1032.5 |
| 20260506102022 | 16 | 274 | 1.6 | 6.4 | 0.00 | 0.10 | 0.00 | 60 | 1032.7 |
| 20260506101022 | 16 | 221 | 1.6 | 4.8 | 0.00 | 0.10 | 0.00 | 59 | 1032.7 |
| 20260506100023 | 16 | 212 | 3.2 | 6.4 | 0.00 | 0.10 | 0.00 | 60 | 1033.1 |
| 20260506095022 | 16 | 266 | 3.2 | 6.4 | 0.00 | 0.10 | 0.00 | 59 | 1032.9 |
| 20260506094022 | 16 | 283 | 3.2 | 6.4 | 0.00 | 0.10 | 0.00 | 60 | 1032.9 |
| 20260506093023 | 17 | 242 | 3.2 | 8.0 | 0.00 | 0.10 | 0.00 | 60 | 1032.8 |
| 20260506092022 | 17 | 272 | 3.2 | 6.4 | 0.00 | 0.10 | 0.00 | 61 | 1033.0 |
| 20260506091022 | 16 | 251 | 3.2 | 6.4 | 0.00 | 0.10 | 0.00 | 63 | 1032.9 |
| 20260506090023 | 16 | 233 | 3.2 | 6.4 | 0.00 | 0.10 | 0.00 | 66 | 1032.9 |
| 20260506085023 | 15 | 257 | 1.6 | 6.4 | 0.00 | 0.10 | 0.00 | 68 | 1033.0 |
| 20260506084022 | 15 | 315 | 1.6 | 3.2 | 0.00 | 0.10 | 0.00 | 70 | 1032.9 |
| 20260506083023 | 15 | 334 | 1.6 | 3.2 | 0.00 | 0.10 | 0.00 | 70 | 1033.1 |
| 20260506082022 | 15 | 213 | 1.6 | 4.8 | 0.00 | 0.10 | 0.00 | 71 | 1033.1 |
| 20260506081022 | 14 | 245 | 1.6 | 3.2 | 0.00 | 0.10 | 0.00 | 72 | 1032.9 |
| 20260506073023 | 13 | 165 | 1.6 | 4.8 | 0.00 | 0.10 | 0.00 | 74 | 1033.2 |
| 20260506072022 | 13 | 337 | 1.6 | 4.8 | 0.00 | 0.10 | 0.00 | 77 | 1033.0 |
| 20260506071022 | 13 | 316 | 1.6 | 3.2 | 0.00 | 0.10 | 0.00 | 79 | 1033.2 |
| 20260506062022 | 11 | 270 | 1.6 | 3.2 | 0.00 | 0.10 | 0.00 | 84 | 1033.1 |
| 20260506061022 | 11 | 0 | 0.0 | 1.6 | 0.00 | 0.10 | 0.00 | 86 | 1033.2 |
| 20260506051022 | 11 | 311 | 1.6 | 4.8 | 0.00 | 0.10 | 0.00 | 94 | 1033.4 |
| 20260506045022 | 9 | 0 | 0.0 | 1.6 | 0.00 | 0.10 | 0.00 | 94 | 1033.7 |
| 20260506044022 | 8 | 298 | 0.0 | 3.2 | 0.00 | 0.10 | 0.00 | 93 | 1033.9 |
| 20260506043022 | 8 | 292 | 1.6 | 3.2 | 0.00 | 0.10 | 0.00 | 92 | 1033.7 |
| 20260506042022 | 8 | 0 | 0.0 | 0.0 | 0.00 | 0.10 | 0.00 | 92 | 1033.8 |
| 20260506041023 | 8 | 164 | 1.6 | 3.2 | 0.00 | 0.10 | 0.00 | 92 | 1033.8 |
| 20260506040023 | 8 | 199 | 0.0 | 3.2 | 0.00 | 0.10 | 0.00 | 92 | 1033.8 |
| 20260506035022 | 8 | 211 | 0.0 | 3.2 | 0.00 | 0.10 | 0.00 | 91 | 1034.1 |
| 20260506034022 | 8 | 279 | 0.0 | 3.2 | 0.00 | 0.10 | 0.00 | 91 | 1034.1 |
| 20260506033023 | 8 | 292 | 0.0 | 3.2 | 0.00 | 0.10 | 0.00 | 91 | 1034.1 |
| 20260506032022 | 9 | 131 | 0.0 | 3.2 | 0.00 | 0.10 | 0.00 | 90 | 1034.5 |
| 20260506031022 | 9 | 144 | 0.0 | 3.2 | 0.00 | 0.10 | 0.00 | 90 | 1034.3 |
| 20260506030023 | 9 | 172 | 0.0 | 3.2 | 0.00 | 0.10 | 0.00 | 89 | 1034.1 |
| 20260506025022 | 10 | 0 | 0.0 | 0.0 | 0.00 | 0.10 | 0.00 | 90 | 1034.2 |
| 20260506024023 | 10 | 217 | 0.0 | 3.2 | 0.00 | 0.10 | 0.00 | 90 | 1034.5 |
| 20260506023022 | 10 | 230 | 1.6 | 6.4 | 0.00 | 0.10 | 0.00 | 91 | 1034.2 |
| 20260506022022 | 10 | 315 | 1.6 | 3.2 | 0.00 | 0.10 | 0.00 | 92 | 1034.3 |
| 20260506021022 | 10 | 155 | 1.6 | 6.4 | 0.00 | 0.10 | 0.00 | 94 | 1034.5 |
| 20260506020023 | 10 | 87 | 1.6 | 3.2 | 0.00 | 0.10 | 0.00 | 95 | 1034.9 |
| 20260506015022 | 10 | 131 | 1.6 | 6.4 | 0.00 | 0.10 | 0.00 | 96 | 1034.6 |
| 20260506014022 | 9 | 147 | 1.6 | 6.4 | 0.00 | 0.10 | 0.00 | 96 | 1034.7 |
| 20260506013023 | 9 | 159 | 0.0 | 3.2 | 0.00 | 0.10 | 0.00 | 96 | 1034.4 |
| 20260506012023 | 9 | 264 | 0.0 | 3.2 | 0.00 | 0.10 | 0.00 | 96 | 1034.6 |
| 20260506011022 | 10 | 344 | 1.6 | 4.8 | 0.00 | 0.10 | 0.00 | 96 | 1034.9 |
| 20260506010023 | 10 | 0 | 0.0 | 1.6 | 0.00 | 0.10 | 0.00 | 95 | 1035.0 |
| 20260506005022 | 10 | 168 | 0.0 | 3.2 | 0.00 | 0.10 | 0.00 | 95 | 1034.8 |
| 20260506004022 | 9 | 241 | 0.0 | 3.2 | 0.00 | 0.10 | 0.00 | 95 | 1034.9 |
| 20260506003023 | 9 | 327 | 0.0 | 3.2 | 0.00 | 0.10 | 0.00 | 94 | 1034.9 |
| 20260506002023 | 10 | 294 | 0.0 | 3.2 | 0.00 | 0.10 | 0.00 | 95 | 1035.0 |
| 20260506001023 | 10 | 353 | 1.6 | 3.2 | 0.00 | 0.10 | 0.00 | 95 | 1035.1 |
| 20260506000023 | 10 | 325 | 0.0 | 3.2 | 0.00 | 0.10 | 0.00 | 94 | 1035.3 |
| 20260505235022 | 10 | 311 | 1.6 | 3.2 | 0.00 | 0.10 | 0.00 | 94 | 1035.2 |
| 20260505234022 | 10 | 283 | 0.0 | 3.2 | 0.00 | 0.10 | 0.00 | 94 | 1035.3 |
| 20260505233023 | 10 | 291 | 0.0 | 3.2 | 0.00 | 0.10 | 0.00 | 94 | 1035.5 |
| 20260505232022 | 10 | 160 | 1.6 | 4.8 | 0.00 | 0.10 | 0.00 | 93 | 1035.4 |
| 20260505231022 | 10 | 199 | 1.6 | 3.2 | 0.00 | 0.10 | 0.00 | 93 | 1035.4 |
| 20260505230023 | 10 | 205 | 1.6 | 3.2 | 0.00 | 0.10 | 0.00 | 93 | 1035.3 |
| 20260505225022 | 10 | 236 | 1.6 | 4.8 | 0.00 | 0.10 | 0.00 | 93 | 1035.5 |
| 20260505224022 | 11 | 210 | 0.0 | 3.2 | 0.00 | 0.10 | 0.00 | 93 | 1035.6 |
| 20260505223023 | 11 | 323 | 1.6 | 6.4 | 0.00 | 0.10 | 0.00 | 93 | 1035.4 |
| 20260505222022 | 11 | 323 | 3.2 | 6.4 | 0.00 | 0.10 | 0.00 | 93 | 1035.6 |
| 20260505221022 | 11 | 149 | 3.2 | 6.4 | 0.00 | 0.10 | 0.00 | 92 | 1035.6 |
| 20260505220026 | 11 | 224 | 3.2 | 6.4 | 0.00 | 0.10 | 0.00 | 92 | 1035.5 |
| 20260505215022 | 11 | 335 | 3.2 | 8.0 | 0.00 | 0.10 | 0.10 | 92 | 1035.3 |
| 20260505214023 | 11 | 326 | 3.2 | 8.0 | 0.00 | 0.10 | 0.10 | 91 | 1035.5 |
| 20260505213022 | 11 | 323 | 3.2 | 8.0 | 0.03 | 0.10 | 0.10 | 91 | 1035.3 |
| 20260505212023 | 11 | 324 | 4.8 | 9.7 | 0.03 | 0.10 | 0.10 | 90 | 1035.2 |
| 20260505211023 | 11 | 289 | 3.2 | 8.0 | 0.05 | 0.10 | 0.10 | 90 | 1035.3 |
| 20260505210023 | 11 | 296 | 3.2 | 9.7 | 0.05 | 0.10 | 0.10 | 90 | 1035.5 |
| 20260505205022 | 12 | 274 | 1.6 | 6.4 | 0.05 | 0.10 | 0.10 | 90 | 1035.4 |
| 20260505204023 | 12 | 209 | 3.2 | 11.3 | 0.05 | 0.10 | 0.10 | 88 | 1035.5 |
| 20260505203023 | 12 | 322 | 4.8 | 11.3 | 0.03 | 0.05 | 0.05 | 86 | 1035.5 |
| 20260505202022 | 13 | 269 | 6.4 | 12.9 | 0.03 | 0.05 | 0.05 | 78 | 1035.6 |
| 20260505201023 | 13 | 349 | 4.8 | 11.3 | 0.00 | 0.03 | 0.03 | 75 | 1035.6 |
| 20260505200022 | 13 | 305 | 8.0 | 22.5 | 0.00 | 0.03 | 0.03 | 72 | 1035.4 |
| 20260505195022 | 14 | 265 | 9.7 | 19.3 | 0.00 | 0.03 | 0.03 | 70 | 1035.4 |
| 20260505194022 | 14 | 181 | 4.8 | 17.7 | 0.00 | 0.03 | 0.03 | 73 | 1035.2 |
| 20260505193022 | 14 | 260 | 3.2 | 8.0 | 0.00 | 0.03 | 0.03 | 74 | 1035.0 |
| 20260505192022 | 14 | 282 | 3.2 | 11.3 | 0.00 | 0.03 | 0.03 | 75 | 1034.9 |
| 20260505191022 | 14 | 202 | 0.0 | 4.8 | 0.00 | 0.03 | 0.03 | 76 | 1034.3 |
| 20260505190022 | 14 | 159 | 1.6 | 6.4 | 0.00 | 0.03 | 0.03 | 76 | 1034.5 |
| 20260505185022 | 14 | 1 | 0.0 | 3.2 | 0.00 | 0.03 | 0.03 | 76 | 1034.2 |
| 20260505184022 | 14 | 0 | 0.0 | 1.6 | 0.00 | 0.03 | 0.03 | 75 | 1034.2 |
| 20260505183022 | 14 | 181 | 0.0 | 1.6 | 0.00 | 0.03 | 0.03 | 75 | 1034.2 |
| 20260505182022 | 14 | 173 | 0.0 | 3.2 | 0.00 | 0.03 | 0.03 | 74 | 1034.0 |
| 20260505181021 | 15 | 169 | 0.0 | 3.2 | 0.00 | 0.03 | 0.03 | 73 | 1034.1 |
| 20260505180023 | 15 | 171 | 1.6 | 3.2 | 0.00 | 0.03 | 0.03 | 72 | 1033.9 |
| 20260505175022 | 15 | 266 | 1.6 | 4.8 | 0.00 | 0.03 | 0.03 | 71 | 1033.7 |
| 20260505174021 | 15 | 137 | 1.6 | 3.2 | 0.00 | 0.03 | 0.03 | 71 | 1033.6 |
| 20260505173023 | 15 | 198 | 0.0 | 3.2 | 0.00 | 0.03 | 0.03 | 72 | 1033.4 |
| 20260505172022 | 16 | 320 | 0.0 | 3.2 | 0.00 | 0.03 | 0.03 | 70 | 1033.3 |
| 20260505171022 | 16 | 158 | 1.6 | 4.8 | 0.00 | 0.03 | 0.03 | 70 | 1033.3 |
| 20260505170023 | 16 | 214 | 3.2 | 6.4 | 0.00 | 0.03 | 0.03 | 71 | 1033.1 |
| 20260505165022 | 16 | 233 | 1.6 | 6.4 | 0.00 | 0.03 | 0.03 | 72 | 1033.1 |
| 20260505164021 | 16 | 235 | 1.6 | 4.8 | 0.00 | 0.03 | 0.03 | 71 | 1033.3 |
| 20260505163022 | 16 | 144 | 1.6 | 3.2 | 0.00 | 0.03 | 0.03 | 69 | 1033.8 |
| 20260505162022 | 16 | 279 | 3.2 | 6.4 | 0.00 | 0.03 | 0.03 | 68 | 1033.8 |
| 20260505161021 | 16 | 314 | 3.2 | 6.4 | 0.00 | 0.03 | 0.03 | 67 | 1033.9 |